TimeCEST,TemperatureF,Dew PointF,Humidity,Sea Level PressureIn,VisibilityMPH,Wind Direction,Wind SpeedMPH,Gust SpeedMPH,PrecipitationIn,Events,Conditions,WindDirDegrees,DateUTC
12:25 AM,53.6,50.0,88,29.65,6.2,ESE,9.2,-,N/A,,Overcast,120,2012-10-11 22:25:00
12:55 AM,53.6,50.0,88,29.62,6.2,ESE,9.2,-,N/A,Rain,Light Rain,110,2012-10-11 22:55:00
1:25 AM,53.6,51.8,94,29.62,4.3,ESE,8.1,-,N/A,Rain,Heavy Drizzle,120,2012-10-11 23:25:00
1:55 AM,53.6,53.6,100,29.62,3.7,ESE,8.1,-,N/A,,Partly Cloudy,120,2012-10-11 23:55:00
2:00 AM,53,53,99,29.63,4,ESE,8.9,,,Rain,Rain,120,2012-10-12 00:00:00
2:25 AM,53.6,51.8,94,29.62,3.1,ESE,8.1,-,N/A,,Overcast,110,2012-10-12 00:25:00
2:55 AM,53.6,53.6,100,29.59,3.1,ESE,8.1,-,N/A,Rain,Light Rain,120,2012-10-12 00:55:00
3:25 AM,53.6,53.6,100,29.59,3.1,ESE,9.2,-,N/A,,Partly Cloudy,120,2012-10-12 01:25:00
3:55 AM,53.6,53.6,100,29.59,2.8,SE,8.1,-,N/A,Rain,Light Rain Showers,130,2012-10-12 01:55:00
4:25 AM,53.6,53.6,100,29.56,3.1,SE,8.1,-,N/A,Rain,Rain,140,2012-10-12 02:25:00
4:55 AM,55.4,53.6,94,29.56,3.1,SE,9.2,-,N/A,,Drizzle,140,2012-10-12 02:55:00
5:00 AM,54,54,100,29.57,3,SSE,6.7,,,Rain,Light Rain,150,2012-10-12 03:00:00
5:25 AM,55.4,55.4,100,29.53,3.1,SSE,6.9,-,N/A,,Partly Cloudy,150,2012-10-12 03:25:00
5:55 AM,55.4,55.4,100,29.53,-9999.0,SSE,9.2,-,N/A,Rain,Rain Showers,150,2012-10-12 03:55:00
6:25 AM,55.4,55.4,100,29.53,4.3,SSE,9.2,-,N/A,,Scattered Clouds,150,2012-10-12 04:25:00
6:55 AM,55.4,55.4,100,29.53,1.9,SSE,9.2,-,N/A,Rain,Light Rain,150,2012-10-12 04:55:00
7:25 AM,57.2,57.2,100,29.53,3.7,SSW,9.2,-,N/A,Rain,Light Rain,200,2012-10-12 05:25:00
7:55 AM,57.2,55.4,94,29.53,6.2,SW,11.5,-,N/A,,Overcast,220,2012-10-12 05:55:00
8:00 AM,58,55,87,29.56,14,SW,11.2,,,Rain,Rain,220,2012-10-12 06:00:00
8:25 AM,57.2,55.4,94,29.56,6.2,SW,15.0,-,N/A,,Overcast,230,2012-10-12 06:25:00
8:55 AM,57.2,53.6,88,29.56,6.2,SW,16.1,-,N/A,,Overcast,230,2012-10-12 06:55:00
9:25 AM,57.2,55.4,94,29.56,6.2,SW,13.8,-,N/A,,Overcast,220,2012-10-12 07:25:00
9:55 AM,57.2,55.4,94,29.59,6.2,SW,11.5,-,N/A,,Overcast,230,2012-10-12 07:55:00
10:25 AM,57.2,51.8,82,29.59,6.2,WSW,15.0,-,N/A,,Mostly Cloudy,240,2012-10-12 08:25:00
10:55 AM,57.2,51.8,82,29.59,6.2,SW,16.1,-,N/A,,Overcast,230,2012-10-12 08:55:00
11:00 AM,57,52,77,29.62,25,SW,15.7,,,,Overcast,230,2012-10-12 09:00:00
11:25 AM,57.2,51.8,82,29.59,6.2,SW,16.1,-,N/A,,Overcast,220,2012-10-12 09:25:00
11:55 AM,57.2,51.8,82,29.62,6.2,SW,18.4,-,N/A,,Mostly Cloudy,230,2012-10-12 09:55:00
12:25 PM,55.4,51.8,88,29.62,6.2,SW,23.0,-,N/A,,Mostly Cloudy,220,2012-10-12 10:25:00
12:55 PM,55.4,53.6,94,29.62,6.2,SW,16.1,-,N/A,,Drizzle,230,2012-10-12 10:55:00
1:25 PM,53.6,53.6,100,29.62,-9999.0,SW,18.4,-,N/A,,Drizzle,220,2012-10-12 11:25:00
1:55 PM,55.4,53.6,94,29.62,3.1,SW,17.3,-,N/A,Rain,Drizzle,220,2012-10-12 11:55:00
2:25 PM,55.4,53.6,94,29.62,6.2,WSW,17.3,-,N/A,Rain,Light Rain,250,2012-10-12 12:25:00
2:55 PM,55.4,53.6,94,29.65,4.3,WSW,18.4,-,N/A,,Mostly Cloudy,250,2012-10-12 12:55:00
3:25 PM,53.6,51.8,94,29.65,6.2,West,16.1,-,N/A,,Mostly Cloudy,260,2012-10-12 13:25:00
3:55 PM,53.6,51.8,94,29.68,6.2,West,15.0,-,N/A,Rain,Light Rain,260,2012-10-12 13:55:00
4:25 PM,53.6,50.0,88,29.68,6.2,West,13.8,-,N/A,Rain,Light Rain,260,2012-10-12 14:25:00
4:55 PM,53.6,50.0,88,29.71,4.3,West,16.1,-,N/A,,Heavy Drizzle,270,2012-10-12 14:55:00
5:00 PM,53,50,86,29.72,7,West,13.4,,,Rain,Light Rain Showers,260,2012-10-12 15:00:00
5:25 PM,51.8,50.0,94,29.71,4.3,WSW,20.7,32.2,N/A,Rain,Light Rain,250,2012-10-12 15:25:00
5:55 PM,53.6,48.2,82,29.74,6.2,WSW,18.4,-,N/A,,Scattered Clouds,250,2012-10-12 15:55:00
6:25 PM,53.6,46.4,77,29.74,6.2,WSW,12.7,-,N/A,,Partly Cloudy,250,2012-10-12 16:25:00
6:55 PM,51.8,44.6,76,29.77,6.2,WSW,17.3,-,N/A,,Partly Cloudy,250,2012-10-12 16:55:00
7:25 PM,51.8,42.8,71,29.77,6.2,WSW,15.0,-,N/A,,Unknown,250,2012-10-12 17:25:00
7:55 PM,51.8,42.8,71,29.77,6.2,WSW,9.2,-,N/A,,Mostly Cloudy,250,2012-10-12 17:55:00
8:00 PM,51,43,67,29.80,22,WSW,8.9,,,,Partly Cloudy,250,2012-10-12 18:00:00
8:25 PM,51.8,44.6,76,29.77,6.2,SW,9.2,-,N/A,,Overcast,220,2012-10-12 18:25:00
8:55 PM,50.0,44.6,82,29.77,6.2,SW,8.1,-,N/A,,Partly Cloudy,230,2012-10-12 18:55:00
9:25 PM,51.8,46.4,82,29.77,6.2,SW,15.0,-,N/A,,Scattered Clouds,220,2012-10-12 19:25:00
9:55 PM,51.8,46.4,82,29.77,6.2,SW,13.8,-,N/A,,Partly Cloudy,220,2012-10-12 19:55:00
10:25 PM,51.8,44.6,76,29.80,6.2,SW,16.1,-,N/A,Thunderstorm,Thunderstorm,220,2012-10-12 20:25:00
10:55 PM,48.2,44.6,87,29.80,6.2,SW,11.5,-,N/A,Rain-Thunderstorm,Light Thunderstorms and Rain,230,2012-10-12 20:55:00
11:00 PM,48,45,86,29.83,28,WSW,6.7,,,Thunderstorm,Light Thunderstorm,240,2012-10-12 21:00:00
11:25 PM,48.2,46.4,93,29.80,6.2,West,3.5,-,N/A,Rain,Light Rain,260,2012-10-12 21:25:00
11:55 PM,48.2,44.6,87,29.80,6.2,South,8.1,-,N/A,Rain,Light Rain,190,2012-10-12 21:55:00